[[{"header":{"parameterUnit":"m.s-1","parameterCategory":1,"la1":30.2991,"la2":30.254,"lo1":-89.0895,"lo2":-89.0444,"dy":0.0017,"dx":0.0017,"nx":28,"ny":28,"refTime":"2025-11-13T09:00:00:Z","depth":0,"parameterNumber":2,"parameterNumberName":"U-component_of_WINDS"},"data":[0,0,0,0,0,0,0,0,0,0,0,0,0,0,0,0,0,0,0,0,0,0,0,0,0,0,0,0,0,0,0,0,0,0,0,0,0,0,0,0,0,0,0,0,0,0,0,0,0,0,0,0,0,0,0,0,0,0,-1.7069,-1.7069,0,-1.7087,-1.7087,-1.7087,-1.7049,-1.7048,-1.7047,-1.7046,-1.7061,-1.7062,-1.7064,0,0,0,0,0,0,0,0,0,0,0,0,0,-1.7002,-1.7003,-1.7069,-1.7069,-1.707,-1.7086,-1.7087,-1.7087,-1.7049,-1.7048,-1.7047,-1.7045,-1.706,-1.7062,-1.7064,0,0,0,0,0,0,0,0,0,0,0,0,0,-1.7026,-1.7004,-1.7069,-1.7053,-1.7052,-1.7086,-1.7087,-1.7087,-1.705,-1.7048,-1.7046,-1.7044,-1.706,-1.7062,-1.7064,-1.7114,0,0,-1.7071,-1.7072,0,0,0,0,0,0,0,0,-1.7025,-1.7029,-1.7055,-1.7054,-1.7053,-1.7064,-1.7068,-1.7096,-1.705,-1.705,-1.7046,-1.7044,-1.7063,-1.7065,-1.7072,-1.7115,-1.7116,-1.7071,-1.7073,-1.7074,-1.7074,0,0,0,0,0,0,0,-1.7023,-1.7028,-1.7076,-1.7056,-1.7054,-1.7044,-1.7046,-1.7073,-1.7067,-1.705,-1.7048,-1.705,-1.7062,-1.707,-1.7072,-1.7116,-1.7071,-1.7073,-1.7075,-1.7076,-1.7202,-1.7204,0,0,0,0,0,0,-1.7024,-1.7026,-1.7075,-1.7076,-1.7034,-1.7047,-1.7049,-1.7062,-1.7066,-1.7065,-1.7052,-1.7049,-1.7067,-1.707,-1.7073,-1.7133,-1.7074,-1.7076,-1.7077,-1.72,-1.7203,-1.7205,0,0,0,0,0,0,-1.7022,-1.7029,-1.7075,-1.7051,-1.7056,-1.705,-1.7066,-1.7063,-1.7071,-1.7067,-1.7066,-1.7061,-1.7066,-1.7069,-1.7105,-1.7132,-1.7077,-1.7079,-1.7198,-1.7201,-1.7204,-1.7253,0,0,0,0,0,0,-1.7021,-1.7028,-1.7048,-1.7052,-1.7057,-1.7107,-1.7067,-1.7065,-1.7076,-1.7071,-1.7076,-1.7075,-1.7064,-1.7102,-1.7107,-1.7135,-1.7081,-1.7196,-1.7199,-1.7203,-1.7248,-1.7257,-1.7264,0,0,0,0,0,-1.7018,-1.706,-1.7049,-1.7055,-1.7082,-1.7109,-1.7112,-1.71,-1.7078,-1.7097,-1.7095,-1.7075,-1.7129,-1.7106,-1.7111,-1.714,-1.7194,-1.7198,-1.7203,-1.7245,-1.7255,-1.7264,0,0,0,0,0,0,-1.7057,-1.706,-1.7048,-1.7091,-1.7101,-1.7102,-1.7126,-1.7111,-1.7126,-1.7121,-1.7105,-1.7106,-1.7145,-1.7146,-1.712,-1.719,-1.7157,-1.7163,-1.7187,-1.7197,-1.7205,-1.7204,-1.7083,0,0,0,0,0,-1.7071,-1.7094,-1.7095,-1.7133,-1.7138,-1.7132,-1.7143,-1.7134,-1.7142,-1.7145,-1.7145,-1.7153,-1.7172,-1.7185,-1.7202,-1.7249,-1.7249,-1.7271,-1.7279,-1.7286,-1.7291,-1.7317,-1.7327,-1.722,-1.722,-1.722,0,0,-1.71,-1.7104,-1.7119,-1.7141,-1.7147,-1.7171,-1.7135,-1.7161,-1.7178,-1.7148,-1.7182,-1.7183,-1.7191,-1.7233,-1.7251,-1.7235,-1.7321,-1.7291,-1.7296,-1.7298,-1.7322,-1.7332,-1.7341,-1.7223,-1.7222,-1.7222,0,0,-1.7164,-1.7169,-1.7203,-1.721,-1.722,-1.7215,-1.7224,-1.7228,-1.7228,-1.7262,-1.7241,-1.7261,-1.7293,-1.73,-1.7308,-1.7377,-1.7359,-1.7383,-1.7424,-1.7449,-1.7458,-1.7465,-1.749,-1.7499,-1.7389,-1.7389,-1.7389,0,-1.7197,-1.7233,-1.7221,-1.725,-1.726,-1.7236,-1.727,-1.7277,-1.7291,-1.7299,-1.7281,-1.7323,-1.7326,-1.737,-1.7387,-1.7394,-1.7403,-1.7382,-1.7458,-1.7465,-1.7472,-1.7495,-1.7505,-1.7392,-1.7391,-1.7391,-1.7391,0,-1.7274,-1.73,-1.7325,-1.7342,-1.7356,-1.7386,-1.7379,-1.7394,-1.7384,-1.7381,-1.7417,-1.7421,-1.7439,-1.7448,-1.7438,-1.7491,-1.7481,-1.7461,-1.7428,-1.7485,-1.7507,-1.7516,-1.7396,-1.7395,-1.7394,-1.7393,0,0,-1.7362,-1.7374,-1.7383,-1.7391,-1.7401,-1.742,-1.745,-1.7469,-1.7483,-1.7494,-1.7519,-1.7548,-1.753,-1.7539,-1.7529,-1.7551,-1.7607,-1.7528,-1.7528,-1.7543,-1.7667,-1.7682,-1.7693,-1.7595,-1.7597,-1.7598,-1.7666,0,-1.7426,-1.7479,-1.747,-1.7521,-1.7545,-1.7523,-1.7549,-1.7558,-1.7557,-1.7577,-1.7575,-1.7596,-1.757,-1.7576,-1.7597,-1.7596,-1.7631,-1.7591,-1.7618,-1.7619,-1.7617,-1.7704,-1.772,-1.7783,-1.7674,-1.7676,-1.7677,0,-1.7507,-1.7524,-1.7578,-1.7586,-1.7596,-1.762,-1.7637,-1.7656,-1.7666,-1.7663,-1.7675,-1.7661,-1.7691,-1.7658,-1.7699,-1.7672,-1.7682,-1.7684,-1.7686,-1.7688,-1.7651,-1.7708,-1.7803,-1.7813,-1.769,-1.7689,-1.7688,0,-1.7567,-1.7602,-1.7639,-1.7647,-1.7657,-1.7675,-1.7679,-1.7688,-1.77,-1.7715,-1.7723,-1.7741,-1.7751,-1.7765,-1.7757,-1.7734,-1.7799,-1.7766,-1.7798,-1.7798,-1.7812,-1.7811,-1.791,-1.7819,-1.7819,-1.7819,-1.7819,0,-1.7639,-1.7673,-1.7667,-1.769,-1.7727,-1.7717,-1.7754,-1.7756,-1.7764,-1.7787,-1.7769,-1.779,-1.7778,-1.7798,-1.7792,-1.7827,-1.7831,-1.783,-1.7828,-1.7832,-1.7832,-1.7838,-1.7834,-1.7821,-1.7821,-1.782,-1.782,0,-1.7711,-1.7708,-1.7748,-1.7755,-1.7758,-1.7785,-1.7791,-1.7813,-1.7811,-1.784,-1.7846,-1.7843,-1.7866,-1.786,-1.7884,-1.788,-1.7925,-1.7917,-1.7922,-1.792,-1.7953,-1.795,-1.8059,-1.8073,-1.7973,-1.7974,-1.7975,0,-1.7758,-1.7784,-1.7795,-1.781,-1.7817,-1.784,-1.7853,-1.7845,-1.7859,-1.7873,-1.7893,-1.7915,-1.7932,-1.797,-1.797,-1.7989,-1.7981,-1.8019,-1.7984,-1.7988,-1.7982,-1.7981,-1.7984,-1.8025,-1.8026,-1.8027,-1.8028,0,-1.7841,-1.7839,-1.7859,-1.788,-1.7897,-1.7913,-1.7926,-1.7939,-1.7931,-1.7948,-1.7973,-1.7986,-1.8013,-1.8035,-1.8053,-1.8057,-1.8041,-1.8039,-1.8048,-1.8052,-1.8054,-1.8053,-1.7941,-1.8036,-1.8036,-1.8035,-1.8034,-1.8034,-1.7901,-1.7924,-1.7936,-1.796,-1.797,-1.7984,-1.8005,-1.8007,-1.8028,-1.8049,-1.8043,-1.8071,-1.8081,-1.8103,-1.811,-1.8131,-1.8117,-1.8129,-1.8132,-1.8135,-1.814,-1.8051,-1.8134,-1.8134,-1.8134,-1.8134,-1.8134,0,-1.7984,-1.7991,-1.8014,-1.8035,-1.8054,-1.8039,-1.8054,-1.807,-1.8096,-1.8107,-1.8125,-1.8154,-1.8176,-1.8178,-1.8198,-1.8215,-1.8208,-1.8221,-1.8219,-1.822,-1.8151,-1.8142,-1.8226,-1.8226,-1.8226,-1.8226,-1.8226,-1.8226,-1.8029,-1.8067,-1.8067,-1.811,-1.8116,-1.8145,-1.8155,-1.8167,-1.8177,-1.821,-1.8229,-1.8231,-1.8238,-1.8259,-1.8279,-1.8279,-1.8287,-1.8302,-1.8299,-1.8234,-1.8225,-1.8216,-1.8208,-1.8304,-1.8304,-1.8367,-1.8367,-1.8368]},{"header":{"parameterUnit":"m.s-1","parameterCategory":1,"la1":30.2991,"la2":30.254,"lo1":-89.0895,"lo2":-89.0444,"dy":0.0017,"dx":0.0017,"nx":28,"ny":28,"refTime":"2025-11-13T09:00:00:Z","depth":0,"parameterNumber":3,"parameterNumberName":"V-component_of_WINDS"},"data":[0,0,0,0,0,0,0,0,0,0,0,0,0,0,0,0,0,0,0,0,0,0,0,0,0,0,0,0,0,0,0,0,0,0,0,0,0,0,0,0,0,0,0,0,0,0,0,0,0,0,0,0,0,0,0,0,0,0,-0.3087,-0.3087,0,-0.3106,-0.3106,-0.3106,-0.3088,-0.3087,-0.3086,-0.3086,-0.3108,-0.3109,-0.3111,0,0,0,0,0,0,0,0,0,0,0,0,0,-0.3036,-0.3037,-0.3087,-0.3087,-0.3087,-0.3106,-0.3106,-0.3106,-0.3088,-0.3087,-0.3086,-0.3085,-0.3108,-0.3109,-0.3111,0,0,0,0,0,0,0,0,0,0,0,0,0,-0.3057,-0.3037,-0.3086,-0.308,-0.308,-0.3105,-0.3106,-0.3106,-0.3088,-0.3087,-0.3086,-0.3085,-0.3107,-0.3109,-0.3111,-0.3145,0,0,-0.3117,-0.3118,0,0,0,0,0,0,0,0,-0.3056,-0.3059,-0.3081,-0.3081,-0.308,-0.3093,-0.3096,-0.3119,-0.3088,-0.3085,-0.3086,-0.3084,-0.3104,-0.3106,-0.3112,-0.3146,-0.3147,-0.3117,-0.3118,-0.3119,-0.3119,0,0,0,0,0,0,0,-0.3054,-0.3058,-0.3094,-0.3081,-0.3081,-0.3077,-0.3078,-0.31,-0.3101,-0.3085,-0.3084,-0.3086,-0.3104,-0.3111,-0.3113,-0.3147,-0.3117,-0.3119,-0.312,-0.312,-0.3208,-0.3209,0,0,0,0,0,0,-0.3053,-0.3057,-0.3094,-0.3095,-0.3065,-0.3078,-0.308,-0.309,-0.31,-0.3101,-0.3087,-0.3085,-0.3108,-0.311,-0.3113,-0.3153,-0.3119,-0.3121,-0.3122,-0.3207,-0.3208,-0.321,0,0,0,0,0,0,-0.3052,-0.3057,-0.3093,-0.3075,-0.308,-0.3081,-0.3092,-0.3091,-0.3098,-0.3102,-0.3102,-0.3094,-0.3107,-0.3111,-0.3137,-0.3154,-0.3122,-0.3123,-0.3206,-0.3207,-0.3209,-0.3234,0,0,0,0,0,0,-0.3051,-0.3056,-0.3069,-0.3076,-0.3081,-0.3115,-0.3093,-0.3092,-0.3101,-0.3099,-0.3108,-0.3109,-0.3106,-0.3134,-0.3139,-0.3156,-0.3125,-0.3204,-0.3206,-0.3208,-0.3231,-0.3236,-0.324,0,0,0,0,0,-0.3049,-0.3076,-0.307,-0.3074,-0.3096,-0.3116,-0.3119,-0.3115,-0.3102,-0.3115,-0.3117,-0.3108,-0.3151,-0.3137,-0.3142,-0.316,-0.3203,-0.3206,-0.3208,-0.3229,-0.3235,-0.324,0,0,0,0,0,0,-0.3074,-0.3077,-0.307,-0.31,-0.3108,-0.3113,-0.313,-0.3122,-0.3134,-0.3132,-0.3127,-0.3129,-0.3156,-0.3161,-0.3145,-0.3193,-0.3175,-0.3179,-0.3189,-0.3195,-0.3199,-0.3198,-0.3126,0,0,0,0,0,-0.3082,-0.3097,-0.31,-0.3126,-0.313,-0.3129,-0.3138,-0.3134,-0.3142,-0.3146,-0.315,-0.3159,-0.3174,-0.3184,-0.3199,-0.3231,-0.3233,-0.3246,-0.325,-0.3254,-0.3258,-0.3275,-0.328,-0.3218,-0.3218,-0.3218,0,0,-0.3101,-0.3105,-0.3115,-0.3131,-0.3137,-0.3153,-0.3132,-0.3151,-0.3163,-0.3149,-0.3173,-0.3176,-0.3186,-0.3215,-0.3228,-0.3219,-0.3275,-0.3257,-0.326,-0.3262,-0.3278,-0.3284,-0.3289,-0.322,-0.322,-0.3219,0,0,-0.3143,-0.3147,-0.3169,-0.3175,-0.3182,-0.3181,-0.3186,-0.3192,-0.3193,-0.3217,-0.3207,-0.3221,-0.3248,-0.3255,-0.3262,-0.3304,-0.3296,-0.3309,-0.3332,-0.3348,-0.3353,-0.3358,-0.3373,-0.3378,-0.3312,-0.3312,-0.3312,0,-0.3166,-0.3189,-0.3182,-0.32,-0.3208,-0.3194,-0.3216,-0.3222,-0.3234,-0.324,-0.3229,-0.3261,-0.3267,-0.3297,-0.3307,-0.3313,-0.3319,-0.3308,-0.3353,-0.3357,-0.3361,-0.3376,-0.3381,-0.3314,-0.3313,-0.3313,-0.3313,0,-0.3216,-0.3232,-0.3249,-0.326,-0.3269,-0.329,-0.3286,-0.3296,-0.329,-0.329,-0.3314,-0.332,-0.3334,-0.3341,-0.3337,-0.337,-0.3364,-0.3353,-0.3336,-0.3369,-0.3382,-0.3388,-0.3316,-0.3315,-0.3315,-0.3314,0,0,-0.3277,-0.3281,-0.3288,-0.3292,-0.3299,-0.3311,-0.333,-0.3343,-0.3352,-0.3361,-0.3377,-0.3398,-0.3388,-0.3396,-0.3391,-0.3405,-0.3438,-0.3393,-0.3393,-0.3401,-0.3475,-0.3484,-0.3491,-0.3432,-0.3433,-0.3434,-0.3475,0,-0.332,-0.3352,-0.3345,-0.3378,-0.3392,-0.3378,-0.3394,-0.34,-0.34,-0.3413,-0.3412,-0.3428,-0.3412,-0.3417,-0.343,-0.3431,-0.3453,-0.3428,-0.3448,-0.3449,-0.3447,-0.3498,-0.3507,-0.3546,-0.348,-0.3481,-0.3481,0,-0.3375,-0.3383,-0.3417,-0.3419,-0.3425,-0.344,-0.345,-0.3462,-0.3468,-0.3467,-0.3475,-0.3467,-0.3486,-0.3467,-0.3493,-0.3476,-0.3483,-0.3485,-0.3486,-0.3489,-0.3468,-0.3502,-0.3558,-0.3564,-0.3489,-0.3489,-0.3488,0,-0.3416,-0.3436,-0.3458,-0.3462,-0.3465,-0.3476,-0.3478,-0.3483,-0.3491,-0.35,-0.3505,-0.3516,-0.3523,-0.3532,-0.3528,-0.3514,-0.3555,-0.3535,-0.3555,-0.3555,-0.3566,-0.3565,-0.3624,-0.3569,-0.3569,-0.3569,-0.3569,0,-0.3465,-0.3486,-0.3476,-0.349,-0.3513,-0.3504,-0.3527,-0.3528,-0.3532,-0.3545,-0.3533,-0.3547,-0.354,-0.3552,-0.3549,-0.3571,-0.3574,-0.3574,-0.3573,-0.3576,-0.3576,-0.3582,-0.3579,-0.357,-0.357,-0.357,-0.3569,0,-0.3516,-0.351,-0.3533,-0.3534,-0.3534,-0.3551,-0.3551,-0.3564,-0.3562,-0.3579,-0.3583,-0.358,-0.3594,-0.359,-0.3606,-0.3604,-0.3632,-0.3627,-0.3629,-0.3629,-0.3649,-0.3647,-0.3714,-0.3722,-0.3661,-0.3661,-0.3662,0,-0.3548,-0.3564,-0.3565,-0.3572,-0.3575,-0.3588,-0.3595,-0.3586,-0.3594,-0.3601,-0.3613,-0.3625,-0.3635,-0.3659,-0.3658,-0.367,-0.3666,-0.3688,-0.3668,-0.3669,-0.3667,-0.3666,-0.3668,-0.3693,-0.3694,-0.3694,-0.3695,0,-0.3606,-0.3602,-0.3612,-0.3621,-0.3629,-0.3636,-0.3642,-0.3649,-0.364,-0.365,-0.3663,-0.3671,-0.3686,-0.3699,-0.3709,-0.3711,-0.3702,-0.3701,-0.3706,-0.371,-0.3711,-0.3711,-0.3642,-0.37,-0.3699,-0.3699,-0.3699,-0.3698,-0.3649,-0.3662,-0.3664,-0.3675,-0.3678,-0.3683,-0.3695,-0.3693,-0.3704,-0.3715,-0.3708,-0.3724,-0.3728,-0.3741,-0.3744,-0.3757,-0.3748,-0.3756,-0.3758,-0.376,-0.3763,-0.3707,-0.3758,-0.3758,-0.3758,-0.3758,-0.3758,0,-0.3707,-0.3707,-0.3717,-0.3725,-0.3733,-0.3721,-0.3727,-0.3735,-0.3749,-0.3752,-0.3761,-0.3777,-0.3788,-0.3788,-0.3798,-0.3808,-0.3804,-0.3812,-0.3812,-0.3812,-0.377,-0.3764,-0.3815,-0.3815,-0.3815,-0.3815,-0.3815,-0.3815,-0.3738,-0.3759,-0.3754,-0.3776,-0.3776,-0.379,-0.3794,-0.3799,-0.3801,-0.3818,-0.3827,-0.3826,-0.3828,-0.3839,-0.3849,-0.3848,-0.3853,-0.3862,-0.386,-0.3821,-0.3815,-0.381,-0.3805,-0.3863,-0.3863,-0.3902,-0.3902,-0.3903]}]]